Regional Weather Roundup
Issued by NWS

Home | Current Version | Previous Version | Graphics & Text | Print | Product List | Glossary On
Versions: 1 2 3 4 5 6 7 8 9 10 11 12 13 14 15 16 17 18 19 20 21 22 23 24 25 26 27 28 29 30 31 32 33 34 35 36 37 38 39 40 41 42 43 44 45 46 47 48 49 50
000
ASUS45 KCYS 261110
RWRWY

WYOMING REGIONAL WEATHER ROUNDUP
NATIONAL WEATHER SERVICE CHEYENNE WY
500 AM MDT THU APR 26 2018

NOTE:  "FAIR" INDICATES FEW OR NO CLOUDS BELOW 12,000 FEET
WITH NO SIGNIFICANT WEATHER AND/OR OBSTRUCTIONS TO VISIBILITY.

WYZ001-261200-
YELLOWSTONE NATIONAL PARK

CITY           SKY/WX    TMP DP  RH WIND       PRES   REMARKS
LK YELLOWSTONE   N/A     22  19  89 CALM      30.32S
W YELLOWSTONE  NOT AVBL

$$
WYZ002>013-054>058-071-098>099-261200-
NORTHERN WYOMING

CITY           SKY/WX    TMP DP  RH WIND       PRES   REMARKS
JACKSON        FAIR      33  25  72 N3        30.29R
CODY           FAIR      35  30  82 SE5       30.29S WCI  31
GREYBULL       FAIR      39  33  79 CALM      30.25R
WORLAND        FAIR      35  31  85 S5        30.27R WCI  31
SHERIDAN       MOCLDY    43  32  65 W12       30.24S
BUFFALO        CLOUDY    43  31  62 NW10      30.25S
GILLETTE       CLOUDY    41  34  76 NW13      30.21R
HULETT         CLOUDY    43  32  65 N7        30.21R
NEWCASTLE      FAIR      36  28  75 NW8       30.19R WCI  29

$$
WYZ014>020-022>026-101>103-261200-
CENTRAL WYOMING

CITY           SKY/WX    TMP DP  RH WIND       PRES   REMARKS
BIG PINEY      FAIR      28  17  63 N5        30.28R WCI  23
PINEDALE       FAIR      30  23  74 N5        30.29R WCI  25
DUBOIS         FAIR      28  27  93 CALM      30.29R
LANDER         CLOUDY    38  32  79 SE9       30.27S WCI  31
RIVERTON       FAIR      37  28  70 E3        30.28S
CASPER         CLOUDY    37  32  82 N3        30.27R
DOUGLAS        MOCLDY    41  32  70 N20G25    30.23R

$$
WYZ021-027>030-104>119-261200-
SOUTHERN WYOMING

CITY           SKY/WX    TMP DP  RH WIND       PRES   REMARKS
EVANSTON       FAIR      36  21  54 SE5       30.25S WCI  32
KEMMERER       FAIR      32  23  69 NW10      30.27R WCI  24
FORT BRIDGER   FAIR      34  22  62 SE9       30.29R WCI  26
ROCK SPRINGS   FAIR      34  28  79 E14       30.29R WCI  25
DIXON          FAIR      39  23  52 NE15G21   30.26S WCI  30
RAWLINS        CLOUDY    37  27  67 N6        30.28R WCI  32
SARATOGA       CLOUDY    37  27  65 N14G24    30.28R WCI  29
LARAMIE        MOCLDY    34  27  75 N17G25    30.23R WCI  23
CHEYENNE       CLOUDY    41  28  60 N22G38    30.19R
TORRINGTON     CLOUDY    48  30  49 NW25G35   30.14R
PINE BLUFFS    FAIR      41  28  60 NW18      30.15R

$$



USA.gov is the U.S. government's official web portal to all federal, state and local government web resources and services.